User: anonymous   Login
Location: Unspecified
(0.0000°N, 0.0000°E)
Time: 22:01:45
(UTC+00:00)
Language:

LANDSAT 8 - Orbit

View from above orbital plane
View from above orbital plane
View from above satellite
View from above satellite

Ground track
Ground track

The orbit data is extracted from the following two-line orbital elements,

1 39084U 13008A   15089.68155298  .00000536  00000-0  12879-3 0  9997
2 39084 098.1838 160.6860 0000832 095.9456 264.1825 14.57130783113171
Epoch (UTC): 30 March 2015 16:21:26
Eccentricity: 0.0000832
inclination: 98.1838°
perigee height: 702 km
apogee height: 703 km
right ascension of ascending node: 160.6860°
argument of perigee: 95.9456°
revolutions per day: 14.57130783
mean anomaly at epoch: 264.1825°
orbit number at epoch: 11317

The dashed part of the orbit path shows where the satellite is in the earth's shadow,  

DLR